When you browse on this site, cookies collect data to enhance your experience and personalize the content and advertising you see.
Visit our Privacy Policy to learn more. By continuing to use the site, you agree to this use of cookies and data.
  • în România
  • Lista ţărilor
  • Pe 7 zile
  • Temperatura apei
  • Hartă satelitară
  • Meteo pe hartă
  • Widget-uri
  • user-avatar
    Intrare

    Meteo pe oră la Cobija

    Astăzi, 19 Martie, Marţi

    Timp Temperatura Precipitaţii Vânt Presiune Umiditate
    00:00 +25°C° 0 mm 1 m/s 737 mmHg 91%
    01:00 +23°C° 0 mm 0 m/s 737 mmHg 92%
    02:00 +23°C° 0 mm 0 m/s 737 mmHg 92%
    03:00 +25°C° 0 mm 1 m/s 737 mmHg 92%
    04:00 +25°C° 0 mm 1 m/s 737 mmHg 92%
    05:00 +25°C° 0 mm 1 m/s 737 mmHg 90%
    06:00 +26°C° 0 mm 1 m/s 738 mmHg 87%
    07:00 +27°C° 0 mm 1 m/s 738 mmHg 85%
    08:00 +29°C° 0 mm 1 m/s 739 mmHg 74%
    09:00 +32°C° 0 mm 1 m/s 739 mmHg 63%
    10:00 +34°C° 0 mm 1 m/s 739 mmHg 53%
    11:00 +35°C° 0 mm 1 m/s 738 mmHg 50%
    12:00 +35°C° 0 mm 1 m/s 737 mmHg 48%
    13:00 +36°C° 0 mm 1 m/s 736 mmHg 46%
    14:00 +35°C° 0 mm 1 m/s 736 mmHg 51%
    15:00 +34°C° 0 mm 1 m/s 735 mmHg 56%
    16:00 +33°C° 0 mm 1 m/s 734 mmHg 61%
    17:00 +32°C° 0 mm 1 m/s 734 mmHg 67%
    18:00 +30°C° 0 mm 1 m/s 735 mmHg 73%
    19:00 +28°C° 0 mm 1 m/s 735 mmHg 78%
    20:00 +26°C° 0 mm 0 m/s 736 mmHg 79%
    21:00 +25°C° 0 mm 0 m/s 736 mmHg 79%
    22:00 +25°C° 0 mm 0 m/s 737 mmHg 80%
    23:00 +25°C° 0 mm 0 m/s 737 mmHg 81%

    Mâine, 20 Martie, Miercuri

    Timp Temperatura Precipitaţii Vânt Presiune Umiditate
    00:00 +26°C° 0 mm 1 m/s 736 mmHg 82%
    01:00 +26°C° 0 mm 1 m/s 736 mmHg 83%
    02:00 +26°C° 0 mm 1 m/s 736 mmHg 86%
    03:00 +25°C° 0 mm 1 m/s 736 mmHg 88%
    04:00 +23°C° 0 mm 0 m/s 736 mmHg 90%
    05:00 +26°C° 0 mm 1 m/s 737 mmHg 88%
    06:00 +26°C° 0 mm 1 m/s 737 mmHg 85%
    07:00 +27°C° 0 mm 1 m/s 738 mmHg 82%
    08:00 +28°C° 0.7 mm 1 m/s 738 mmHg 84%
    09:00 +30°C° 0.7 mm 1 m/s 738 mmHg 85%
    10:00 +31°C° 0.7 mm 1 m/s 739 mmHg 87%
    11:00 +32°C° 0.8 mm 1 m/s 738 mmHg 76%
    12:00 +34°C° 0.8 mm 1 m/s 737 mmHg 64%
    13:00 +35°C° 0.8 mm 1 m/s 736 mmHg 53%
    14:00 +35°C° 0 mm 1 m/s 736 mmHg 54%
    15:00 +34°C° 0 mm 1 m/s 736 mmHg 56%
    16:00 +34°C° 0 mm 1 m/s 735 mmHg 57%
    17:00 +31°C° 1.2 mm 1 m/s 736 mmHg 68%
    18:00 +29°C° 1.2 mm 1 m/s 736 mmHg 78%
    19:00 +27°C° 1.2 mm 1 m/s 736 mmHg 89%
    20:00 +27°C° 0 mm 1 m/s 737 mmHg 90%
    21:00 +26°C° 0 mm 1 m/s 737 mmHg 92%
    22:00 +24°C° 0 mm 0 m/s 738 mmHg 93%
    23:00 +23°C° 1.1 mm 0 m/s 737 mmHg 94%

    Poimâine, 21 Martie, Joi

    Timp Temperatura Precipitaţii Vânt Presiune Umiditate
    00:00 +25°C° 1.1 mm 1 m/s 737 mmHg 96%
    01:00 +25°C° 1.1 mm 1 m/s 737 mmHg 97%
    02:00 +22°C° 0.5 mm 0 m/s 737 mmHg 97%
    03:00 +22°C° 0.5 mm 0 m/s 736 mmHg 98%
    04:00 +22°C° 0.5 mm 0 m/s 736 mmHg 98%
    05:00 +23°C° 0 mm 0 m/s 737 mmHg 97%
    06:00 +23°C° 0 mm 0 m/s 738 mmHg 96%
    07:00 +24°C° 0 mm 0 m/s 739 mmHg 95%
    08:00 +26°C° 1.4 mm 1 m/s 739 mmHg 95%
    09:00 +27°C° 1.4 mm 1 m/s 740 mmHg 95%
    10:00 +28°C° 1.4 mm 1 m/s 740 mmHg 96%
    11:00 +28°C° 1.4 mm 1 m/s 739 mmHg 95%
    12:00 +28°C° 1.4 mm 1 m/s 739 mmHg 95%
    13:00 +28°C° 1.4 mm 1 m/s 738 mmHg 95%
    14:00 +28°C° 0.7 mm 1 m/s 737 mmHg 95%
    15:00 +26°C° 0.7 mm 0 m/s 737 mmHg 95%
    16:00 +26°C° 0.7 mm 0 m/s 736 mmHg 95%
    17:00 +25°C° 0 mm 0 m/s 736 mmHg 96%
    18:00 +24°C° 0 mm 0 m/s 737 mmHg 97%
    19:00 +23°C° 0 mm 0 m/s 737 mmHg 98%
    20:00 +23°C° 0 mm 0 m/s 737 mmHg 98%
    21:00 +23°C° 0 mm 0 m/s 738 mmHg 98%
    22:00 +23°C° 0 mm 0 m/s 738 mmHg 98%
    23:00 +22°C° 0 mm 0 m/s 738 mmHg 99%

    22 Martie, Vineri

    Timp Temperatura Precipitaţii Vânt Presiune Umiditate
    00:00 +22°C° 0 mm 0 m/s 738 mmHg 99%
    01:00 +22°C° 0 mm 0 m/s 737 mmHg 99%
    02:00 +22°C° 0 mm 0 m/s 737 mmHg 99%
    03:00 +21°C° 0 mm 0 m/s 737 mmHg 99%
    04:00 +21°C° 0 mm 0 m/s 737 mmHg 99%
    05:00 +22°C° 0 mm 0 m/s 738 mmHg 97%
    06:00 +24°C° 0 mm 1 m/s 738 mmHg 96%
    07:00 +25°C° 0 mm 1 m/s 739 mmHg 94%
    08:00 +27°C° 0 mm 1 m/s 739 mmHg 83%
    09:00 +29°C° 0 mm 1 m/s 739 mmHg 71%
    10:00 +32°C° 0 mm 1 m/s 740 mmHg 59%
    11:00 +33°C° 0.1 mm 1 m/s 739 mmHg 56%
    12:00 +33°C° 0.1 mm 0 m/s 738 mmHg 53%
    13:00 +34°C° 0.1 mm 0 m/s 737 mmHg 50%
    14:00 +32°C° 0.9 mm 0 m/s 736 mmHg 64%
    15:00 +30°C° 0.9 mm 0 m/s 736 mmHg 78%
    16:00 +29°C° 0.9 mm 1 m/s 735 mmHg 91%
    17:00 +28°C° 0.7 mm 1 m/s 736 mmHg 93%
    18:00 +27°C° 0.7 mm 1 m/s 736 mmHg 95%
    19:00 +26°C° 0.7 mm 1 m/s 737 mmHg 97%
    20:00 +24°C° 0 mm 0 m/s 737 mmHg 97%
    21:00 +23°C° 0 mm 0 m/s 738 mmHg 97%
    22:00 +23°C° 0 mm 0 m/s 738 mmHg 97%
    23:00 +23°C° 0.3 mm 0 m/s 738 mmHg 97%

    23 Martie, Sâmbătă

    Timp Temperatura Precipitaţii Vânt Presiune Umiditate
    00:00 +23°C° 0.3 mm 0 m/s 738 mmHg 98%
    01:00 +23°C° 0.3 mm 0 m/s 737 mmHg 98%
    02:00 +22°C° 0.9 mm 0 m/s 737 mmHg 98%
    03:00 +22°C° 0.9 mm 0 m/s 737 mmHg 98%
    04:00 +22°C° 0.9 mm 0 m/s 737 mmHg 98%
    05:00 +22°C° 0.5 mm 0 m/s 738 mmHg 98%
    06:00 +23°C° 0.5 mm 0 m/s 739 mmHg 98%
    07:00 +23°C° 0.5 mm 0 m/s 740 mmHg 97%
    08:00 +24°C° 1.3 mm 0 m/s 740 mmHg 96%
    09:00 +25°C° 1.3 mm 0 m/s 740 mmHg 95%
    10:00 +26°C° 1.3 mm 0 m/s 740 mmHg 93%
    11:00 +27°C° 1.8 mm 0 m/s 739 mmHg 92%
    12:00 +27°C° 1.8 mm 0 m/s 738 mmHg 90%
    13:00 +28°C° 1.8 mm 0 m/s 738 mmHg 88%
    14:00 +29°C° 1.4 mm 1 m/s 737 mmHg 90%
    15:00 +29°C° 1.4 mm 1 m/s 737 mmHg 92%
    16:00 +29°C° 1.4 mm 1 m/s 736 mmHg 94%
    17:00 +26°C° 0.9 mm 0 m/s 736 mmHg 95%
    18:00 +25°C° 0.9 mm 0 m/s 737 mmHg 96%
    19:00 +23°C° 0.9 mm 0 m/s 737 mmHg 97%
    20:00 +23°C° 0 mm 0 m/s 738 mmHg 97%
    21:00 +23°C° 0 mm 0 m/s 738 mmHg 97%
    22:00 +23°C° 0 mm 0 m/s 738 mmHg 97%
    23:00 +23°C° 0 mm 0 m/s 738 mmHg 97%

    24 Martie, Duminică

    Timp Temperatura Precipitaţii Vânt Presiune Umiditate
    00:00 +23°C° 0 mm 0 m/s 738 mmHg 98%
    01:00 +22°C° 0 mm 0 m/s 737 mmHg 98%
    02:00 +22°C° 0 mm 0 m/s 737 mmHg 98%
    03:00 +22°C° 0 mm 0 m/s 737 mmHg 98%
    04:00 +22°C° 0 mm 0 m/s 737 mmHg 98%
    05:00 +23°C° 0 mm 0 m/s 738 mmHg 98%
    06:00 +23°C° 0 mm 0 m/s 739 mmHg 97%
    07:00 +23°C° 0 mm 0 m/s 739 mmHg 97%
    08:00 +24°C° 0.8 mm 0 m/s 739 mmHg 97%
    09:00 +24°C° 0.8 mm 0 m/s 739 mmHg 96%
    10:00 +25°C° 0.8 mm 0 m/s 740 mmHg 96%
    11:00 +26°C° 1 mm 0 m/s 739 mmHg 94%
    12:00 +26°C° 1 mm 0 m/s 738 mmHg 92%
    13:00 +27°C° 1 mm 0 m/s 737 mmHg 91%
    14:00 +27°C° 1 mm 0 m/s 736 mmHg 89%
    15:00 +27°C° 1 mm 0 m/s 736 mmHg 87%
    16:00 +27°C° 1 mm 0 m/s 735 mmHg 86%
    17:00 +26°C° 0.1 mm 0 m/s 736 mmHg 89%
    18:00 +25°C° 0.1 mm 0 m/s 736 mmHg 92%
    19:00 +24°C° 0.1 mm 0 m/s 737 mmHg 96%
    20:00 +24°C° 0 mm 0 m/s 737 mmHg 96%
    21:00 +23°C° 0 mm 0 m/s 737 mmHg 97%
    22:00 +23°C° 0 mm 0 m/s 738 mmHg 97%
    23:00 +23°C° 0.1 mm 0 m/s 738 mmHg 98%
    Arată mai mult